Weather History for KPMV - January, 2014

Change the Weather History Date:

Monday, January 20, 2014

  Actual Average (KOFF) Record (KOFF)
Temperature  
Mean Temperature 28 °F -  
Max Temperature 48 °F 31 °F 57 °F (1997)
Min Temperature 6 °F 14 °F -9 °F (2008)
Degree Days  
Heating Degree Days 38    
Moisture  
Dew Point 18 °F    
Average Humidity 57    
Maximum Humidity 80    
Minimum Humidity 32    
Precipitation  
Precipitation 0.00 in - - ()
Sea Level Pressure  
Sea Level Pressure 30.05 in    
Wind  
Wind Speed 13 mph (NW)    
Max Wind Speed 40 mph    
Max Gust Speed 47 mph    
Visibility 10 miles    
Events Snow    
Averages and records for this station are not official NWS values.
T = Trace of Precipitation, MM = Missing Value Source: NWS Daily Summary

Daily Weather History Graph

Daily Weather History Graph

Search for Another Location

Airport or City:

Trip Planner

Search our weather history database for the weather conditions in past years. The results will help you decide how hot, cold, wet, or windy it might be!

Date:

Astronomy

Jan. 20, 2014 Rise Set
Actual Time 7:43 AM CST 5:26 PM CST
Civil Twilight 7:13 AM CST 5:56 PM CST
Nautical Twilight 6:40 AM CST 6:29 PM CST
Astronomical Twilight 6:07 AM CST 7:02 PM CST
Moon 10:04 PM CST (1/20) 9:41 AM CST (1/20)
Length of Visible Light 10h 42m
Length of Day
9h 42m
Waning Gibbous, 82% of the Moon is Illuminated
Jan 20
Waning Gibbous
Jan 23
Last Quarter
Jan 30
New
Feb 6
First Quarter
Feb 14
Full

Hourly Weather History & Observations

Time (CST) Temp. Windchill Dew Point Humidity Pressure Visibility Wind Dir Wind Speed Gust Speed Precip Events Conditions
12:15 AM 37.8 °F 31.3 °F 21.7 °F 53% 29.84 in 10.0 mi NW 9.2 mph - N/A   Clear
12:35 AM 40.5 °F 33.6 °F 23.0 °F 50% 29.84 in 10.0 mi NNW 11.5 mph - N/A   Clear
12:55 AM 40.1 °F 34.7 °F 22.6 °F 50% 29.83 in 10.0 mi NNW 8.1 mph - N/A   Clear
1:15 AM 39.4 °F 34.5 °F 23.2 °F 52% 29.83 in 10.0 mi North 6.9 mph - N/A   Clear
1:35 AM 38.8 °F 33.8 °F 23.0 °F 53% 29.84 in 10.0 mi NNW 6.9 mph - N/A   Clear
1:55 AM 37.6 °F 33.1 °F 22.8 °F 55% 29.84 in 10.0 mi NNW 5.8 mph - N/A   Clear
2:15 AM 38.1 °F 34.6 °F 22.8 °F 54% 29.84 in 10.0 mi North 4.6 mph - N/A   Clear
2:35 AM 35.8 °F 33.0 °F 22.3 °F 58% 29.85 in 10.0 mi West 3.5 mph - N/A   Clear
2:55 AM 35.4 °F 30.5 °F 22.1 °F 58% 29.86 in 10.0 mi West 5.8 mph - N/A   Clear
3:15 AM 33.6 °F 27.5 °F 21.9 °F 62% 29.87 in 10.0 mi WNW 6.9 mph - N/A   Clear
3:35 AM 33.1 °F 26.1 °F 21.9 °F 64% 29.88 in 10.0 mi NW 8.1 mph - N/A   Clear
3:55 AM 33.1 °F 25.5 °F 21.7 °F 63% 29.89 in 10.0 mi NW 9.2 mph - N/A   Clear
4:15 AM 32.0 °F 24.8 °F 21.6 °F 65% 29.89 in 10.0 mi NW 8.1 mph - N/A   Clear
4:35 AM 33.8 °F 28.6 °F 22.1 °F 62% 29.90 in 10.0 mi WNW 5.8 mph - N/A   Clear
4:55 AM 32.4 °F 26.9 °F 21.2 °F 63% 29.90 in 10.0 mi NW 5.8 mph - N/A   Clear
5:15 AM 31.1 °F 25.4 °F 20.8 °F 66% 29.91 in 10.0 mi West 5.8 mph - N/A   Clear
5:35 AM 32.0 °F 24.8 °F 21.6 °F 65% 29.91 in 10.0 mi West 8.1 mph - N/A   Clear
5:55 AM 29.7 °F 24.7 °F 20.3 °F 68% 29.91 in 10.0 mi West 4.6 mph - N/A   Clear
6:15 AM 28.0 °F 21.7 °F 19.4 °F 70% 29.92 in 10.0 mi West 5.8 mph - N/A   Clear
6:35 AM 29.3 °F 23.2 °F 20.5 °F 70% 29.92 in 10.0 mi WNW 5.8 mph - N/A   Clear
6:55 AM 29.3 °F 21.5 °F 20.5 °F 70% 29.94 in 10.0 mi WNW 8.1 mph - N/A   Clear
7:15 AM 30.9 °F 23.5 °F 21.2 °F 67% 29.94 in 10.0 mi West 8.1 mph - N/A   Clear
7:35 AM 30.7 °F 23.3 °F 21.0 °F 67% 29.95 in 10.0 mi West 8.1 mph - N/A   Clear
7:55 AM 30.6 °F 23.8 °F 21.2 °F 68% 29.96 in 10.0 mi West 6.9 mph - N/A   Scattered Clouds
8:15 AM 30.6 °F 23.8 °F 21.6 °F 69% 29.96 in 10.0 mi WNW 6.9 mph - N/A   Clear
8:35 AM 32.2 °F 25.0 °F 23.0 °F 69% 29.97 in 10.0 mi WNW 8.1 mph - N/A   Clear
8:55 AM 34.9 °F 30.8 °F 24.4 °F 66% 29.98 in 10.0 mi WNW 4.6 mph - N/A   Clear
9:15 AM 36.3 °F 29.5 °F 24.8 °F 63% 29.99 in 10.0 mi West 9.2 mph - N/A   Clear
9:35 AM 37.9 °F 30.9 °F 25.3 °F 60% 30.01 in 10.0 mi WNW 10.4 mph - N/A   Clear
9:55 AM 38.5 °F 32.1 °F 25.7 °F 60% 30.01 in 10.0 mi NW 9.2 mph - N/A   Clear
10:15 AM 39.6 °F 34.0 °F 25.7 °F 58% 30.02 in 10.0 mi WNW 8.1 mph - N/A   Clear
10:35 AM 40.5 °F 33.6 °F 25.7 °F 56% 30.02 in 10.0 mi WNW 11.5 mph 17.3 mph N/A   Clear
10:55 AM 42.3 °F 35.1 °F 26.1 °F 53% 30.02 in 10.0 mi WNW 13.8 mph 18.4 mph N/A   Clear
11:15 AM 44.1 °F 36.2 °F 25.5 °F 48% 30.03 in 10.0 mi WNW 18.4 mph - N/A   Clear
11:35 AM 45.1 °F 37.6 °F 24.6 °F 45% 30.02 in 10.0 mi NW 18.4 mph 25.3 mph N/A   Clear
11:55 AM 45.7 °F 38.0 °F 24.4 °F 43% 30.02 in 10.0 mi WNW 19.6 mph 25.3 mph N/A   Clear
12:15 PM 47.8 °F - 22.8 °F 37% 30.01 in 10.0 mi NW 20.7 mph 27.6 mph N/A   Clear
12:35 PM 48.4 °F - 19.8 °F 32% 30.00 in 10.0 mi NW 28.8 mph 35.7 mph N/A   Clear
12:55 PM 47.7 °F - 19.2 °F 32% 30.00 in 10.0 mi WNW 24.2 mph 31.1 mph N/A   Clear
1:15 PM 48.2 °F - 19.6 °F 32% 30.00 in 10.0 mi NW 24.2 mph 33.4 mph N/A   Mostly Cloudy
1:35 PM 45.9 °F 37.4 °F 20.1 °F 36% 30.00 in 10.0 mi NW 24.2 mph 32.2 mph N/A   Overcast
1:55 PM 46.0 °F 37.2 °F 19.6 °F 35% 30.00 in 10.0 mi NW 26.5 mph 32.2 mph N/A   Overcast
2:15 PM 44.8 °F 37.4 °F 20.1 °F 37% 30.00 in 10.0 mi NW 17.3 mph 29.9 mph N/A   Overcast
2:35 PM 45.1 °F 35.6 °F 20.3 °F 37% 30.00 in 10.0 mi NW 28.8 mph 38.0 mph N/A   Overcast
2:55 PM 44.8 °F 36.6 °F 20.1 °F 37% 30.01 in 10.0 mi NW 20.7 mph 29.9 mph N/A   Overcast
3:15 PM 44.6 °F 35.9 °F 21.0 °F 39% 30.02 in 10.0 mi NW 23.0 mph 31.1 mph N/A   Overcast
3:35 PM 44.6 °F 35.7 °F 21.0 °F 39% 30.02 in 10.0 mi NW 24.2 mph 29.9 mph N/A   Overcast
3:55 PM 44.1 °F 34.8 °F 21.4 °F 41% 30.03 in 10.0 mi WNW 25.3 mph 34.5 mph N/A   Overcast
4:15 PM 35.6 °F 24.0 °F 30.0 °F 80% 30.06 in 4.0 mi NW 23.0 mph 44.9 mph N/A Snow Light Snow
4:35 PM 36.5 °F 25.7 °F 28.6 °F 73% 30.07 in 10.0 mi WNW 20.7 mph 27.6 mph N/A   Overcast
4:55 PM 36.7 °F 22.3 °F 25.7 °F 64% 30.08 in 7.0 mi NW 40.3 mph 47.2 mph N/A   Overcast
5:15 PM 32.9 °F 19.3 °F 20.7 °F 61% 30.11 in 10.0 mi NW 27.6 mph 40.3 mph N/A   Overcast
5:35 PM 31.8 °F 17.4 °F 16.2 °F 52% 30.13 in 10.0 mi NW 29.9 mph 38.0 mph N/A   Overcast
5:55 PM 29.3 °F 13.0 °F 14.2 °F 53% 30.15 in 10.0 mi NW 34.5 mph 40.3 mph N/A   Mostly Cloudy
6:15 PM 27.3 °F 11.0 °F 12.9 °F 55% 30.17 in 10.0 mi NW 31.1 mph 42.6 mph N/A   Clear
6:35 PM 25.9 °F 9.3 °F 12.9 °F 58% 30.18 in 10.0 mi NW 29.9 mph 41.4 mph N/A   Mostly Cloudy
6:55 PM 23.9 °F 7.5 °F 13.1 °F 63% 30.21 in 10.0 mi NW 26.5 mph 42.6 mph N/A   Overcast
7:15 PM 22.3 °F 5.3 °F 12.7 °F 67% 30.23 in 7.0 mi NNW 26.5 mph 38.0 mph N/A Snow Light Snow
7:35 PM 19.9 °F 1.5 °F 8.4 °F 61% 30.26 in 10.0 mi NW 28.8 mph 39.1 mph N/A   Overcast
7:55 PM 19.2 °F 2.2 °F 8.2 °F 62% 30.27 in 10.0 mi NNW 23.0 mph 32.2 mph N/A   Overcast
8:15 PM 18.3 °F 0.3 °F 6.8 °F 61% 30.29 in 10.0 mi NNW 25.3 mph 38.0 mph N/A   Overcast
8:35 PM 16.7 °F -2.5 °F 5.7 °F 62% 30.31 in 10.0 mi NW 27.6 mph 36.8 mph N/A   Overcast
8:55 PM 15.8 °F -3.4 °F 6.4 °F 67% 30.33 in 10.0 mi NW 26.5 mph 31.1 mph N/A   Overcast
9:15 PM 14.5 °F -4.7 °F 3.6 °F 62% 30.34 in 10.0 mi NW 25.3 mph 35.7 mph N/A   Overcast
9:35 PM 13.1 °F -6.7 °F 1.9 °F 61% 30.36 in 10.0 mi NW 25.3 mph 34.5 mph N/A   Overcast
9:55 PM 12.2 °F -5.8 °F 1.2 °F 61% 30.37 in 10.0 mi NNW 19.6 mph 31.1 mph N/A   Overcast
10:15 PM 11.3 °F -5.5 °F 2.3 °F 67% 30.38 in 4.0 mi NNW 16.1 mph 31.1 mph N/A Snow Light Snow
10:35 PM 9.9 °F -10.6 °F 1.8 °F 70% 30.39 in 5.0 mi NW 24.2 mph 31.1 mph N/A   Haze
10:55 PM 8.6 °F -11.0 °F -0.2 °F 67% 30.40 in 7.0 mi NNW 20.7 mph 29.9 mph N/A   Overcast
11:15 PM 7.7 °F -8.9 °F -2.2 °F 64% 30.42 in 10.0 mi North 13.8 mph 28.8 mph N/A   Mostly Cloudy
11:35 PM 7.2 °F -13.3 °F -2.9 °F 63% 30.42 in 10.0 mi NNW 21.9 mph 26.5 mph N/A   Scattered Clouds
11:55 PM 6.3 °F -10.0 °F -4.0 °F 63% 30.43 in 10.0 mi North 12.7 mph 24.2 mph N/A   Clear